Time,TemperatureF,DewpointF,PressureIn,WindDirection,WindDirectionDegrees,WindSpeedMPH,WindSpeedGustMPH,Humidity,HourlyPrecipIn,Conditions,Clouds,dailyrainin,SoftwareType,DateUTC
2013-04-10 00:03:00,67.0,56.0,29.88,North,0,0.0,4.0,68,0.00,,,0.00,,2013-04-10 04:03:00,
2013-04-10 00:13:00,67.0,56.0,29.88,North,0,0.0,4.0,68,0.00,,,0.00,,2013-04-10 04:13:00,
2013-04-10 00:23:00,67.0,56.0,29.88,North,0,0.0,4.0,69,0.00,,,0.00,,2013-04-10 04:23:00,
2013-04-10 00:33:00,66.0,56.0,29.87,WNW,286,1.0,9.0,70,0.00,,,0.00,,2013-04-10 04:33:00,
2013-04-10 00:43:00,66.0,56.0,29.87,WNW,286,1.0,9.0,70,0.00,,,0.00,,2013-04-10 04:43:00,
2013-04-10 00:53:00,66.0,56.0,29.86,North,0,0.0,5.0,69,0.00,,,0.00,,2013-04-10 04:53:00,
2013-04-10 01:02:00,66.0,56.0,29.86,North,0,0.0,5.0,70,0.00,,,0.00,,2013-04-10 05:02:00,
2013-04-10 01:13:00,66.0,56.0,29.85,North,0,0.0,4.0,70,0.00,,,0.00,,2013-04-10 05:13:00,
2013-04-10 01:23:00,66.0,56.0,29.85,North,0,0.0,4.0,70,0.00,,,0.00,,2013-04-10 05:23:00,
2013-04-10 01:33:00,65.0,55.0,29.85,WNW,303,1.0,7.0,71,0.00,,,0.00,,2013-04-10 05:33:00,
2013-04-10 01:42:00,65.0,55.0,29.85,WNW,303,1.0,7.0,71,0.00,,,0.00,,2013-04-10 05:42:00,
2013-04-10 01:53:00,65.0,55.0,29.85,North,0,0.0,5.0,71,0.00,,,0.00,,2013-04-10 05:53:00,
2013-04-10 02:03:00,65.0,55.0,29.85,North,0,0.0,11.0,71,0.00,,,0.00,,2013-04-10 06:03:00,
2013-04-10 02:12:00,65.0,56.0,29.85,North,0,0.0,5.0,72,0.00,,,0.00,,2013-04-10 06:12:00,
2013-04-10 02:22:00,65.0,56.0,29.85,North,0,0.0,5.0,72,0.00,,,0.00,,2013-04-10 06:22:00,
2013-04-10 02:32:00,64.0,55.0,29.84,North,0,0.0,4.0,72,0.00,,,0.00,,2013-04-10 06:32:00,
2013-04-10 02:42:00,64.0,55.0,29.84,North,0,0.0,4.0,72,0.00,,,0.00,,2013-04-10 06:42:00,
2013-04-10 02:52:00,65.0,56.0,29.84,North,0,0.0,7.0,72,0.00,,,0.00,,2013-04-10 06:52:00,
2013-04-10 03:02:00,64.0,55.0,29.84,North,0,0.0,5.0,72,0.00,,,0.00,,2013-04-10 07:02:00,
2013-04-10 03:12:00,64.0,55.0,29.84,North,0,0.0,5.0,72,0.00,,,0.00,,2013-04-10 07:12:00,
2013-04-10 03:22:00,64.0,55.0,29.84,North,0,0.0,7.0,72,0.00,,,0.00,,2013-04-10 07:22:00,
2013-04-10 03:32:00,64.0,55.0,29.84,North,0,0.0,2.0,72,0.00,,,0.00,,2013-04-10 07:32:00,
2013-04-10 03:42:00,64.0,55.0,29.84,North,0,0.0,2.0,72,0.00,,,0.00,,2013-04-10 07:42:00,
2013-04-10 03:52:00,63.0,54.0,29.84,North,0,0.0,5.0,73,0.00,,,0.00,,2013-04-10 07:52:00,
2013-04-10 04:02:00,63.0,54.0,29.84,North,0,0.0,4.0,73,0.00,,,0.00,,2013-04-10 08:02:00,
2013-04-10 04:12:00,63.0,54.0,29.84,North,0,0.0,4.0,73,0.00,,,0.00,,2013-04-10 08:12:00,
2013-04-10 04:22:00,63.0,55.0,29.84,North,0,0.0,3.0,74,0.00,,,0.00,,2013-04-10 08:22:00,
2013-04-10 04:32:00,63.0,54.0,29.85,North,0,0.0,2.0,73,0.00,,,0.00,,2013-04-10 08:32:00,
2013-04-10 04:42:00,63.0,54.0,29.85,North,0,0.0,2.0,73,0.00,,,0.00,,2013-04-10 08:42:00,
2013-04-10 04:52:00,63.0,54.0,29.86,North,0,0.0,4.0,73,0.00,,,0.00,,2013-04-10 08:52:00,
2013-04-10 05:02:00,63.0,54.0,29.86,North,0,0.0,2.0,73,0.00,,,0.00,,2013-04-10 09:02:00,
2013-04-10 05:12:00,63.0,55.0,29.87,North,0,0.0,0.0,74,0.00,,,0.00,,2013-04-10 09:12:00,
2013-04-10 05:22:00,63.0,55.0,29.87,North,0,0.0,0.0,74,0.00,,,0.00,,2013-04-10 09:22:00,
2013-04-10 05:32:00,62.0,54.0,29.87,North,0,0.0,1.0,75,0.00,,,0.00,,2013-04-10 09:32:00,
2013-04-10 05:43:00,62.0,54.0,29.87,North,0,0.0,2.0,75,0.00,,,0.00,,2013-04-10 09:43:00,
2013-04-10 05:53:00,62.0,54.0,29.87,North,0,0.0,2.0,75,0.00,,,0.00,,2013-04-10 09:53:00,
2013-04-10 06:03:00,62.0,54.0,29.87,North,0,0.0,3.0,75,0.00,,,0.00,,2013-04-10 10:03:00,
2013-04-10 06:13:00,62.0,54.0,29.87,North,0,0.0,2.0,75,0.00,,,0.00,,2013-04-10 10:13:00,
2013-04-10 06:23:00,62.0,54.0,29.87,North,0,0.0,2.0,75,0.00,,,0.00,,2013-04-10 10:23:00,
2013-04-10 06:33:00,62.0,54.0,29.88,North,0,0.0,1.0,75,0.00,,,0.00,,2013-04-10 10:33:00,
2013-04-10 06:43:00,62.0,54.0,29.88,North,0,0.0,1.0,75,0.00,,,0.00,,2013-04-10 10:43:00,
2013-04-10 06:53:00,62.0,54.0,29.88,North,0,0.0,0.0,75,0.00,,,0.00,,2013-04-10 10:53:00,
2013-04-10 07:02:00,62.0,54.0,29.88,North,0,0.0,2.0,76,0.00,,,0.00,,2013-04-10 11:02:00,
2013-04-10 07:12:00,62.0,54.0,29.88,North,0,0.0,2.0,76,0.00,,,0.00,,2013-04-10 11:12:00,
2013-04-10 07:22:00,62.0,54.0,29.89,North,0,0.0,0.0,76,0.00,,,0.00,,2013-04-10 11:22:00,
2013-04-10 07:32:00,62.0,54.0,29.90,North,0,0.0,0.0,76,0.00,,,0.00,,2013-04-10 11:32:00,
2013-04-10 07:42:00,62.0,54.0,29.90,North,0,0.0,0.0,76,0.00,,,0.00,,2013-04-10 11:42:00,
2013-04-10 07:53:00,63.0,55.0,29.90,North,0,0.0,2.0,75,0.00,,,0.00,,2013-04-10 11:53:00,
2013-04-10 08:03:00,63.0,55.0,29.90,North,0,0.0,3.0,74,0.00,,,0.00,,2013-04-10 12:03:00,
2013-04-10 08:12:00,63.0,55.0,29.90,North,0,0.0,3.0,74,0.00,,,0.00,,2013-04-10 12:12:00,
2013-04-10 08:23:00,64.0,56.0,29.91,North,0,0.0,0.0,74,0.00,,,0.00,,2013-04-10 12:23:00,
2013-04-10 08:33:00,64.0,56.0,29.91,North,0,0.0,0.0,74,0.00,,,0.00,,2013-04-10 12:33:00,
2013-04-10 08:42:00,64.0,56.0,29.91,North,0,0.0,0.0,74,0.00,,,0.00,,2013-04-10 12:42:00,
2013-04-10 08:52:00,65.0,56.0,29.90,North,0,0.0,3.0,73,0.00,,,0.00,,2013-04-10 12:52:00,
2013-04-10 09:02:00,68.0,57.0,29.90,North,0,0.0,4.0,69,0.00,,,0.00,,2013-04-10 13:02:00,
2013-04-10 09:12:00,68.0,57.0,29.90,North,0,0.0,4.0,69,0.00,,,0.00,,2013-04-10 13:12:00,
2013-04-10 09:23:00,73.0,58.0,29.90,North,0,0.0,6.0,60,0.00,,,0.00,,2013-04-10 13:23:00,
2013-04-10 09:32:00,76.0,59.0,29.89,North,0,0.0,7.0,56,0.00,,,0.00,,2013-04-10 13:32:00,
2013-04-10 09:43:00,76.0,59.0,29.89,North,0,0.0,7.0,56,0.00,,,0.00,,2013-04-10 13:43:00,
2013-04-10 09:53:00,77.0,60.0,29.89,North,0,0.0,4.0,56,0.00,,,0.00,,2013-04-10 13:53:00,
2013-04-10 10:02:00,78.0,61.0,29.89,NNW,347,1.0,9.0,55,0.00,,,0.00,,2013-04-10 14:02:00,
2013-04-10 10:12:00,79.0,62.0,29.90,North,0,0.0,10.0,56,0.00,,,0.00,,2013-04-10 14:12:00,
2013-04-10 10:22:00,79.0,62.0,29.90,North,0,0.0,10.0,56,0.00,,,0.00,,2013-04-10 14:22:00,
2013-04-10 10:33:00,79.0,61.0,29.90,NW,305,2.0,7.0,55,0.00,,,0.00,,2013-04-10 14:33:00,
2013-04-10 10:42:00,80.0,61.0,29.89,NW,318,2.0,9.0,53,0.00,,,0.00,,2013-04-10 14:42:00,
2013-04-10 10:52:00,80.0,61.0,29.89,NW,318,2.0,9.0,53,0.00,,,0.00,,2013-04-10 14:52:00,
2013-04-10 11:02:00,81.0,62.0,29.88,NW,311,1.0,10.0,53,0.00,,,0.00,,2013-04-10 15:02:00,
2013-04-10 11:12:00,81.0,62.0,29.88,NW,311,1.0,10.0,53,0.00,,,0.00,,2013-04-10 15:12:00,
2013-04-10 11:22:00,81.0,62.0,29.88,NW,306,1.0,9.0,52,0.00,,,0.00,,2013-04-10 15:22:00,
2013-04-10 11:33:00,81.0,62.0,29.88,NNW,340,2.0,10.0,53,0.00,,,0.00,,2013-04-10 15:33:00,
2013-04-10 11:42:00,81.0,62.0,29.88,NNW,340,2.0,10.0,53,0.00,,,0.00,,2013-04-10 15:42:00,
2013-04-10 11:53:00,81.0,62.0,29.88,NW,305,1.0,9.0,52,0.00,,,0.00,,2013-04-10 15:53:00,
2013-04-10 12:03:00,82.0,62.0,29.88,NNW,345,2.0,13.0,51,0.00,,,0.00,,2013-04-10 16:03:00,
2013-04-10 12:13:00,82.0,62.0,29.88,NNW,345,2.0,13.0,51,0.00,,,0.00,,2013-04-10 16:13:00,
2013-04-10 12:23:00,83.0,64.0,29.88,NNW,348,1.0,9.0,52,0.00,,,0.00,,2013-04-10 16:23:00,
2013-04-10 12:33:00,83.0,64.0,29.88,NNW,329,1.0,13.0,52,0.00,,,0.00,,2013-04-10 16:33:00,
2013-04-10 12:43:00,83.0,64.0,29.88,NNW,329,1.0,13.0,52,0.00,,,0.00,,2013-04-10 16:43:00,
2013-04-10 12:53:00,84.0,63.0,29.86,NNW,327,1.0,9.0,50,0.00,,,0.00,,2013-04-10 16:53:00,
2013-04-10 13:03:00,83.0,63.0,29.86,NW,322,1.0,11.0,51,0.00,,,0.00,,2013-04-10 17:03:00,
2013-04-10 13:12:00,84.0,63.0,29.86,NNW,329,2.0,7.0,50,0.00,,,0.00,,2013-04-10 17:12:00,
2013-04-10 13:22:00,84.0,63.0,29.86,NNW,329,2.0,7.0,50,0.00,,,0.00,,2013-04-10 17:22:00,
2013-04-10 13:33:00,86.0,64.0,29.86,North,9,3.0,12.0,48,0.00,,,0.00,,2013-04-10 17:33:00,
2013-04-10 13:43:00,86.0,64.0,29.86,North,9,3.0,12.0,48,0.00,,,0.00,,2013-04-10 17:43:00,
2013-04-10 13:53:00,85.0,64.0,29.86,North,360,2.0,13.0,50,0.00,,,0.00,,2013-04-10 17:53:00,
2013-04-10 14:12:00,86.0,65.0,29.86,WNW,300,2.0,15.0,49,0.00,,,0.00,,2013-04-10 18:12:00,
2013-04-10 14:23:00,85.0,64.0,29.85,WNW,299,2.0,11.0,50,0.00,,,0.00,,2013-04-10 18:23:00,
2013-04-10 14:33:00,86.0,65.0,29.84,West,281,4.0,11.0,49,0.00,,,0.00,,2013-04-10 18:33:00,
2013-04-10 14:42:00,86.0,65.0,29.84,West,281,4.0,11.0,49,0.00,,,0.00,,2013-04-10 18:42:00,
2013-04-10 14:53:00,86.0,65.0,29.84,North,9,1.0,11.0,49,0.00,,,0.00,,2013-04-10 18:53:00,
2013-04-10 15:03:00,86.0,65.0,29.84,North,354,1.0,10.0,49,0.00,,,0.00,,2013-04-10 19:03:00,
2013-04-10 15:12:00,85.0,64.0,29.84,North,0,0.0,10.0,50,0.00,,,0.00,,2013-04-10 19:12:00,
2013-04-10 15:22:00,85.0,64.0,29.84,North,0,0.0,10.0,50,0.00,,,0.00,,2013-04-10 19:22:00,
2013-04-10 15:33:00,84.0,64.0,29.83,WNW,295,1.0,7.0,51,0.00,,,0.00,,2013-04-10 19:33:00,
2013-04-10 15:42:00,86.0,65.0,29.82,NW,317,2.0,10.0,49,0.00,,,0.00,,2013-04-10 19:42:00,
2013-04-10 15:53:00,86.0,65.0,29.82,NW,317,2.0,10.0,49,0.00,,,0.00,,2013-04-10 19:53:00,
2013-04-10 16:03:00,87.0,64.0,29.81,West,281,1.0,9.0,46,0.00,,,0.00,,2013-04-10 20:03:00,
2013-04-10 16:12:00,85.0,62.0,29.80,North,0,0.0,9.0,47,0.00,,,0.00,,2013-04-10 20:12:00,
2013-04-10 16:23:00,85.0,62.0,29.80,North,0,0.0,9.0,47,0.00,,,0.00,,2013-04-10 20:23:00,
2013-04-10 16:33:00,86.0,63.0,29.79,West,276,1.0,10.0,47,0.00,,,0.00,,2013-04-10 20:33:00,
2013-04-10 16:42:00,86.0,63.0,29.79,NW,309,2.0,10.0,46,0.00,,,0.00,,2013-04-10 20:42:00,
2013-04-10 16:52:00,86.0,63.0,29.79,NW,309,2.0,10.0,46,0.00,,,0.00,,2013-04-10 20:52:00,
2013-04-10 17:03:00,86.0,63.0,29.79,WNW,292,2.0,12.0,46,0.00,,,0.00,,2013-04-10 21:03:00,
2013-04-10 17:13:00,86.0,63.0,29.78,WNW,299,1.0,11.0,46,0.00,,,0.00,,2013-04-10 21:13:00,
2013-04-10 17:22:00,86.0,63.0,29.78,WNW,299,1.0,11.0,46,0.00,,,0.00,,2013-04-10 21:22:00,
2013-04-10 17:33:00,85.0,62.0,29.79,WNW,291,1.0,13.0,46,0.00,,,0.00,,2013-04-10 21:33:00,
2013-04-10 17:43:00,85.0,62.0,29.79,WNW,291,1.0,13.0,46,0.00,,,0.00,,2013-04-10 21:43:00,
2013-04-10 17:53:00,85.0,62.0,29.77,NW,308,2.0,9.0,47,0.00,,,0.00,,2013-04-10 21:53:00,
2013-04-10 18:03:00,85.0,63.0,29.77,WNW,285,2.0,12.0,48,0.00,,,0.00,,2013-04-10 22:03:00,
2013-04-10 18:13:00,84.0,63.0,29.77,West,279,1.0,5.0,49,0.00,,,0.00,,2013-04-10 22:13:00,
2013-04-10 18:23:00,84.0,63.0,29.77,West,279,1.0,5.0,49,0.00,,,0.00,,2013-04-10 22:23:00,
2013-04-10 18:33:00,83.0,62.0,29.76,WNW,291,3.0,10.0,50,0.00,,,0.00,,2013-04-10 22:33:00,
2013-04-10 18:42:00,83.0,62.0,29.76,WNW,291,3.0,10.0,50,0.00,,,0.00,,2013-04-10 22:42:00,
2013-04-10 18:53:00,82.0,62.0,29.75,WNW,288,1.0,12.0,51,0.00,,,0.00,,2013-04-10 22:53:00,
2013-04-10 19:03:00,81.0,61.0,29.75,West,267,1.0,8.0,51,0.00,,,0.00,,2013-04-10 23:03:00,
2013-04-10 19:12:00,81.0,62.0,29.75,North,0,0.0,6.0,53,0.00,,,0.00,,2013-04-10 23:12:00,
2013-04-10 19:22:00,81.0,62.0,29.75,North,0,0.0,6.0,53,0.00,,,0.00,,2013-04-10 23:22:00,
2013-04-10 19:33:00,80.0,61.0,29.74,North,0,0.0,9.0,52,0.00,,,0.00,,2013-04-10 23:33:00,
2013-04-10 19:42:00,80.0,61.0,29.74,North,0,0.0,9.0,52,0.00,,,0.00,,2013-04-10 23:42:00,
2013-04-10 19:53:00,80.0,61.0,29.74,North,0,0.0,9.0,52,0.00,,,0.00,,2013-04-10 23:53:00,
2013-04-10 20:02:00,80.0,61.0,29.73,North,0,0.0,14.0,52,0.00,,,0.00,,2013-04-11 00:02:00,
2013-04-10 20:13:00,79.0,61.0,29.75,North,0,0.0,4.0,54,0.00,,,0.00,,2013-04-11 00:13:00,
2013-04-10 20:22:00,79.0,61.0,29.75,North,0,0.0,4.0,54,0.00,,,0.00,,2013-04-11 00:22:00,
2013-04-10 20:32:00,78.0,62.0,29.75,North,0,0.0,2.0,59,0.00,,,0.00,,2013-04-11 00:32:00,
2013-04-10 20:42:00,76.0,62.0,29.77,North,0,0.0,0.0,61,0.00,,,0.00,,2013-04-11 00:42:00,
2013-04-10 20:53:00,76.0,62.0,29.77,North,0,0.0,0.0,61,0.00,,,0.00,,2013-04-11 00:53:00,
2013-04-10 21:02:00,75.0,61.0,29.78,North,0,0.0,0.0,61,0.00,,,0.00,,2013-04-11 01:02:00,
2013-04-10 21:12:00,75.0,61.0,29.78,North,0,0.0,3.0,62,0.00,,,0.00,,2013-04-11 01:12:00,
2013-04-10 21:22:00,75.0,61.0,29.78,North,0,0.0,3.0,62,0.00,,,0.00,,2013-04-11 01:22:00,
2013-04-10 21:32:00,74.0,61.0,29.78,North,0,0.0,0.0,63,0.00,,,0.00,,2013-04-11 01:32:00,
2013-04-10 21:42:00,73.0,60.0,29.78,North,0,0.0,0.0,64,0.00,,,0.00,,2013-04-11 01:42:00,
2013-04-10 21:52:00,73.0,60.0,29.78,North,0,0.0,0.0,64,0.00,,,0.00,,2013-04-11 01:52:00,
2013-04-10 22:03:00,72.0,60.0,29.78,North,0,0.0,0.0,65,0.00,,,0.00,,2013-04-11 02:03:00,
2013-04-10 22:12:00,71.0,62.0,29.86,NE,51,2.0,16.0,72,0.00,,,0.00,,2013-04-11 02:12:00,
2013-04-10 22:22:00,71.0,62.0,29.86,NE,51,2.0,16.0,72,0.00,,,0.00,,2013-04-11 02:22:00,
2013-04-10 22:32:00,67.0,61.0,29.89,North,0,0.0,7.0,80,0.08,,,0.08,,2013-04-11 02:32:00,
2013-04-10 22:42:00,67.0,61.0,29.89,North,0,0.0,7.0,80,0.08,,,0.08,,2013-04-11 02:42:00,
2013-04-10 22:53:00,65.0,60.0,29.88,North,0,0.0,3.0,85,0.09,,,0.09,,2013-04-11 02:53:00,
2013-04-10 23:02:00,64.0,60.0,29.85,North,0,0.0,2.0,88,0.13,,,0.13,,2013-04-11 03:02:00,
2013-04-10 23:12:00,63.0,60.0,29.84,North,0,0.0,1.0,90,0.12,,,0.14,,2013-04-11 03:12:00,
2013-04-10 23:22:00,63.0,60.0,29.84,North,0,0.0,1.0,90,0.12,,,0.14,,2013-04-11 03:22:00,
2013-04-10 23:33:00,62.0,59.0,29.83,North,0,0.0,2.0,91,0.06,,,0.14,,2013-04-11 03:33:00,
2013-04-10 23:43:00,62.0,60.0,29.83,North,0,0.0,0.0,92,0.03,,,0.14,,2013-04-11 03:43:00,
2013-04-10 23:54:00,62.0,60.0,29.83,North,0,0.0,0.0,92,0.03,,,0.14,,2013-04-11 03:54:00,